Shun Cheng — BBUL — position and weather

sailwx.info

Track history (hours):
 
Tides and Currents Weather Stations Pressure Air Temp Water Temp Dewpoint Dewpoint Depression Visibility Wind Speed Wind Dir Waves Ship Positions

Shun Cheng

Last reported at 2014-Oct-25 23:29 UTC. Time now 2014-Oct-26 00:24 UTC.
Position N 31°58' E 120°52'.

Length 128 m; draft 7.4 m.

Type: Cargo ship. MMSI: 412949000.

Date/timePositionNaut miles runAvg speedWind from/ knotsBaromVisibWave heightAir tempDewpointWater temp
2014-Oct-25 23:29N 31°58' E 120°52'0 0.0
2014-Oct-25 22:31N 31°58' E 120°52'0 0.0
2014-Oct-25 21:28N 31°58' E 120°52'0 0.0
2014-Oct-25 20:13N 31°58' E 120°52'0 0.0
2014-Oct-25 19:28N 31°58' E 120°52'0 0.0
2014-Oct-25 18:24N 31°58' E 120°52'0 0.1
2014-Oct-25 17:33N 31°58' E 120°51'5 5.3
2014-Oct-25 16:33N 32°01' E 120°46'1110.9
2014-Oct-25 15:33N 32°01' E 120°33'8 7.5
2014-Oct-25 14:34N 31°58' E 120°25'0 0.1
2014-Oct-25 13:33N 31°58' E 120°25'0 0.0
2014-Oct-25 12:32N 31°58' E 120°25'0 0.0
2014-Oct-25 11:33N 31°58' E 120°25'0 0.0
2014-Oct-25 10:33N 31°58' E 120°25'0 0.0
2014-Oct-25 09:33N 31°58' E 120°25'0 0.0
2014-Oct-25 08:32N 31°58' E 120°25'0 0.0
2014-Oct-25 07:32N 31°58' E 120°25'0 0.0
2014-Oct-25 06:32N 31°58' E 120°25'0 0.0
2014-Oct-25 05:32N 31°58' E 120°25'0 0.0
2014-Oct-25 04:33N 31°58' E 120°25'0 0.0
2014-Oct-25 03:32N 31°58' E 120°25'0 0.0
2014-Oct-25 02:32N 31°58' E 120°25'0 0.0
2014-Oct-25 01:32N 31°58' E 120°25'0 0.0
2014-Oct-25 00:32N 31°58' E 120°25'0 0.0
2014-Oct-24 23:32N 31°58' E 120°25'0 0.0
2014-Oct-24 22:32N 31°58' E 120°25'0 0.0
2014-Oct-24 21:32N 31°58' E 120°25'0 0.0
2014-Oct-24 20:32N 31°58' E 120°25'0 0.0
2014-Oct-24 19:32N 31°58' E 120°25'0 0.0
2014-Oct-24 18:32N 31°58' E 120°25'0 0.0
2014-Oct-24 17:33N 31°58' E 120°25'5 4.5
2014-Oct-24 16:33N 31°58' E 120°20'10 9.7
2014-Oct-24 15:33N 31°56' E 120°08'1211.8
2014-Oct-24 14:33N 32°02' E 119°56'1413.7
2014-Oct-24 13:33N 32°16' E 119°52'5 0.2
2014-Oct-23 10:15N 32°19' E 119°48'7 9.5
2014-Oct-23 09:32N 32°14' E 119°53'1212.1
2014-Oct-23 08:34N 32°03' E 119°56'1211.6
2014-Oct-23 07:34N 31°56' E 120°08'1110.8
2014-Oct-23 06:33N 31°59' E 120°20'1110.9
2014-Oct-23 05:33N 32°04' E 120°32'9 9.5
2014-Oct-23 04:33N 32°00' E 120°42'9 8.7
2014-Oct-23 03:33N 31°57' E 120°52'1111.2
2014-Oct-23 02:33N 31°47' E 120°58'9 8.6
2014-Oct-23 01:32N 31°43' E 121°07'1110.8
2014-Oct-23 00:33N 31°37' E 121°17'1010.1
2014-Oct-22 23:33N 31°30' E 121°26'10 9.7
2014-Oct-22 22:33N 31°24' E 121°34'1110.3
2014-Oct-22 21:31N 31°19' E 121°45'10 9.8
2014-Oct-22 20:30N 31°15' E 121°56'  
2014-Oct-19 18:12N 35°03' E 139°37'914.2
2014-Oct-19 17:33N 35°10' E 139°45'1212.3
2014-Oct-19 16:33N 35°22' E 139°42'1212.3
2014-Oct-19 15:33N 35°32' E 139°51'7 6.8
2014-Oct-19 14:33N 35°37' E 139°46'0 0.0
2014-Oct-19 13:23N 35°37' E 139°46'0 0.0
2014-Oct-19 12:26N 35°37' E 139°46'0 0.0
2014-Oct-19 11:10N 35°37' E 139°46'0 0.0
2014-Oct-19 10:22N 35°37' E 139°46'0 0.0
2014-Oct-19 09:28N 35°37' E 139°46'0 0.0
2014-Oct-19 08:31N 35°37' E 139°46'0 0.0
2014-Oct-19 07:19N 35°37' E 139°46'3 3.1
2014-Oct-19 06:24N 35°35' E 139°48'8 9.2
2014-Oct-19 05:33N 35°28' E 139°50'8 7.5
2014-Oct-19 04:31N 35°27' E 139°40'0 0.0
2014-Oct-19 03:31N 35°27' E 139°40'0 0.0
2014-Oct-19 02:31N 35°27' E 139°40'0 0.0
2014-Oct-19 01:28N 35°27' E 139°40'0 0.0
2014-Oct-19 00:31N 35°27' E 139°40'0 0.0
2014-Oct-18 23:31N 35°27' E 139°40'2 2.3
2014-Oct-18 22:33N 35°26' E 139°43'8 8.1
2014-Oct-18 21:33N 35°18' E 139°45'9 9.2
2014-Oct-18 20:33N 35°09' E 139°46'246 6.8
2014-Oct-17 08:30N 34°03' E 134°59'1313.0
2014-Oct-17 07:31N 34°16' E 134°58'1112.0
2014-Oct-17 06:33N 34°26' E 135°06'1313.0
2014-Oct-17 05:33N 34°35' E 135°16'5 4.4
2014-Oct-17 04:30N 34°40' E 135°14'0 0.0
2014-Oct-17 03:30N 34°40' E 135°14'0 0.0
2014-Oct-17 02:30N 34°40' E 135°14'0 0.0
2014-Oct-17 01:30N 34°40' E 135°14'0 0.0
2014-Oct-17 00:30N 34°40' E 135°14'0 0.0
2014-Oct-16 23:23N 34°40' E 135°14'0 0.3
2014-Oct-16 22:33N 34°40' E 135°14'3 2.4
2014-Oct-16 21:28N 34°37' E 135°15'0 0.0
2014-Oct-16 20:31N 34°37' E 135°15'0 0.0
2014-Oct-16 19:31N 34°37' E 135°15'0 0.1
2014-Oct-16 18:28N 34°37' E 135°15'0 0.0
2014-Oct-16 17:28N 34°37' E 135°15'3 3.4
2014-Oct-16 16:33N 34°37' E 135°19'6 5.5
2014-Oct-16 15:30N 34°39' E 135°26'0 0.0
2014-Oct-16 14:24N 34°39' E 135°26'0 0.0
2014-Oct-16 13:33N 34°39' E 135°26'3 3.2
2014-Oct-16 12:33N 34°38' E 135°22'1211.6
2014-Oct-16 11:33N 34°30' E 135°12'1312.5
2014-Oct-16 10:31N 34°21' E 135°01'1212.2
2014-Oct-16 09:33N 34°09' E 134°59'1313.1
2014-Oct-16 08:32N 33°56' E 134°59'  
Track history (hours):
 
Tides and Currents Weather Stations Pressure Air Temp Water Temp Dewpoint Dewpoint Depression Visibility Wind Speed Wind Dir Waves Ship Positions

Shun Cheng

Last reported at 2014-Oct-25 23:29 UTC. Time now 2014-Oct-26 00:24 UTC.
Position N 31°58' E 120°52'.

Length 128 m; draft 7.4 m.

Type: Cargo ship. MMSI: 412949000.

Date/timePositionNaut miles runAvg speedWind from/ knotsBaromVisibWave heightAir tempDewpointWater temp
2014-Oct-25 23:29N 31°58' E 120°52'0 0.0
2014-Oct-25 22:31N 31°58' E 120°52'0 0.0
2014-Oct-25 21:28N 31°58' E 120°52'0 0.0
2014-Oct-25 20:13N 31°58' E 120°52'0 0.0
2014-Oct-25 19:28N 31°58' E 120°52'0 0.0
2014-Oct-25 18:24N 31°58' E 120°52'0 0.1
2014-Oct-25 17:33N 31°58' E 120°51'5 5.3
2014-Oct-25 16:33N 32°01' E 120°46'1110.9
2014-Oct-25 15:33N 32°01' E 120°33'8 7.5
2014-Oct-25 14:34N 31°58' E 120°25'0 0.1
2014-Oct-25 13:33N 31°58' E 120°25'0 0.0
2014-Oct-25 12:32N 31°58' E 120°25'0 0.0
2014-Oct-25 11:33N 31°58' E 120°25'0 0.0
2014-Oct-25 10:33N 31°58' E 120°25'0 0.0
2014-Oct-25 09:33N 31°58' E 120°25'0 0.0
2014-Oct-25 08:32N 31°58' E 120°25'0 0.0
2014-Oct-25 07:32N 31°58' E 120°25'0 0.0
2014-Oct-25 06:32N 31°58' E 120°25'0 0.0
2014-Oct-25 05:32N 31°58' E 120°25'0 0.0
2014-Oct-25 04:33N 31°58' E 120°25'0 0.0
2014-Oct-25 03:32N 31°58' E 120°25'0 0.0
2014-Oct-25 02:32N 31°58' E 120°25'0 0.0
2014-Oct-25 01:32N 31°58' E 120°25'0 0.0
2014-Oct-25 00:32N 31°58' E 120°25'0 0.0
2014-Oct-24 23:32N 31°58' E 120°25'0 0.0
2014-Oct-24 22:32N 31°58' E 120°25'0 0.0
2014-Oct-24 21:32N 31°58' E 120°25'0 0.0
2014-Oct-24 20:32N 31°58' E 120°25'0 0.0
2014-Oct-24 19:32N 31°58' E 120°25'0 0.0
2014-Oct-24 18:32N 31°58' E 120°25'0 0.0
2014-Oct-24 17:33N 31°58' E 120°25'5 4.5
2014-Oct-24 16:33N 31°58' E 120°20'10 9.7
2014-Oct-24 15:33N 31°56' E 120°08'1211.8
2014-Oct-24 14:33N 32°02' E 119°56'1413.7
2014-Oct-24 13:33N 32°16' E 119°52'5 0.2
2014-Oct-23 10:15N 32°19' E 119°48'7 9.5
2014-Oct-23 09:32N 32°14' E 119°53'1212.1
2014-Oct-23 08:34N 32°03' E 119°56'1211.6
2014-Oct-23 07:34N 31°56' E 120°08'1110.8
2014-Oct-23 06:33N 31°59' E 120°20'1110.9
2014-Oct-23 05:33N 32°04' E 120°32'9 9.5
2014-Oct-23 04:33N 32°00' E 120°42'9 8.7
2014-Oct-23 03:33N 31°57' E 120°52'1111.2
2014-Oct-23 02:33N 31°47' E 120°58'9 8.6
2014-Oct-23 01:32N 31°43' E 121°07'1110.8
2014-Oct-23 00:33N 31°37' E 121°17'1010.1
2014-Oct-22 23:33N 31°30' E 121°26'10 9.7
2014-Oct-22 22:33N 31°24' E 121°34'1110.3
2014-Oct-22 21:31N 31°19' E 121°45'10 9.8
2014-Oct-22 20:30N 31°15' E 121°56'  
2014-Oct-19 18:12N 35°03' E 139°37'914.2
2014-Oct-19 17:33N 35°10' E 139°45'1212.3
2014-Oct-19 16:33N 35°22' E 139°42'1212.3
2014-Oct-19 15:33N 35°32' E 139°51'7 6.8
2014-Oct-19 14:33N 35°37' E 139°46'0 0.0
2014-Oct-19 13:23N 35°37' E 139°46'0 0.0
2014-Oct-19 12:26N 35°37' E 139°46'0 0.0
2014-Oct-19 11:10N 35°37' E 139°46'0 0.0
2014-Oct-19 10:22N 35°37' E 139°46'0 0.0
2014-Oct-19 09:28N 35°37' E 139°46'0 0.0
2014-Oct-19 08:31N 35°37' E 139°46'0 0.0
2014-Oct-19 07:19N 35°37' E 139°46'3 3.1
2014-Oct-19 06:24N 35°35' E 139°48'8 9.2
2014-Oct-19 05:33N 35°28' E 139°50'8 7.5
2014-Oct-19 04:31N 35°27' E 139°40'0 0.0
2014-Oct-19 03:31N 35°27' E 139°40'0 0.0
2014-Oct-19 02:31N 35°27' E 139°40'0 0.0
2014-Oct-19 01:28N 35°27' E 139°40'0 0.0
2014-Oct-19 00:31N 35°27' E 139°40'0 0.0
2014-Oct-18 23:31N 35°27' E 139°40'2 2.3
2014-Oct-18 22:33N 35°26' E 139°43'8 8.1
2014-Oct-18 21:33N 35°18' E 139°45'9 9.2
2014-Oct-18 20:33N 35°09' E 139°46'246 6.8
2014-Oct-17 08:30N 34°03' E 134°59'1313.0
2014-Oct-17 07:31N 34°16' E 134°58'1112.0
2014-Oct-17 06:33N 34°26' E 135°06'1313.0
2014-Oct-17 05:33N 34°35' E 135°16'5 4.4
2014-Oct-17 04:30N 34°40' E 135°14'0 0.0
2014-Oct-17 03:30N 34°40' E 135°14'0 0.0
2014-Oct-17 02:30N 34°40' E 135°14'0 0.0
2014-Oct-17 01:30N 34°40' E 135°14'0 0.0
2014-Oct-17 00:30N 34°40' E 135°14'0 0.0
2014-Oct-16 23:23N 34°40' E 135°14'0 0.3
2014-Oct-16 22:33N 34°40' E 135°14'3 2.4
2014-Oct-16 21:28N 34°37' E 135°15'0 0.0
2014-Oct-16 20:31N 34°37' E 135°15'0 0.0
2014-Oct-16 19:31N 34°37' E 135°15'0 0.1
2014-Oct-16 18:28N 34°37' E 135°15'0 0.0
2014-Oct-16 17:28N 34°37' E 135°15'3 3.4
2014-Oct-16 16:33N 34°37' E 135°19'6 5.5
2014-Oct-16 15:30N 34°39' E 135°26'0 0.0
2014-Oct-16 14:24N 34°39' E 135°26'0 0.0
2014-Oct-16 13:33N 34°39' E 135°26'3 3.2
2014-Oct-16 12:33N 34°38' E 135°22'1211.6
2014-Oct-16 11:33N 34°30' E 135°12'1312.5
2014-Oct-16 10:31N 34°21' E 135°01'1212.2
2014-Oct-16 09:33N 34°09' E 134°59'1313.1
2014-Oct-16 08:32N 33°56' E 134°59'  

Dump ship's entire track history